Regional Weather Roundup
Issued by NWS

Home | Current Version | Previous Version | Text Only | Print | Product List | Glossary Off
Versions: 1 2 3 4 5 6 7 8 9 10 11 12 13 14 15 16 17 18 19 20 21 22 23 24 25 26 27 28 29 30 31 32 33 34 35 36 37 38 39 40 41 42 43 44 45 46 47 48 49 50

000
ASUS43 KLSX 171807
RWRMO

WEATHER SUMMARY FOR MISSOURI
NATIONAL WEATHER SERVICE SPRINGFIELD MO
100 PM CDT THU APR 17 2014

NOTE: "FAIR" INDICATES FEW OR NO CLOUDS BELOW 12,000 FEET WITH NO
       SIGNIFICANT WEATHER AND/OR OBSTRUCTIONS TO VISIBILITY.
       CURRENT SKY AND/OR WEATHER CONDITIONS ARE NOT AVAILABLE FOR
       CHILLICOTHE AND FARMINGTON.

MOZ001>031-035>038-043-044-053-054-171900-
...NORTHERN AND WESTERN MISSOURI...

CITY           SKY/WX    TMP DP  RH WIND       PRES   REMARKS
KANSAS CTY INT CLOUDY    44  31  60 VRB5      30.30F
6HR MIN TEMP:  37; 6HR MAX TEMP:  44;

KANSAS C DTWN  CLOUDY    44  31  60 N6        30.30F
6HR MIN TEMP:  39; 6HR MAX TEMP:  44;

LEE`S SUMMIT   CLOUDY    42  31  64 N7        30.30F
6HR MIN TEMP:  38; 6HR MAX TEMP:  43;

ST JOSEPH      CLOUDY    44  29  55 CALM      30.32F
6HR MIN TEMP:  36; 6HR MAX TEMP:  45;

CHILLICOTHE      N/A     44  31  60 N7        30.32F
6HR MIN TEMP:  39; 6HR MAX TEMP:  45;

KIRKSVILLE     CLOUDY    46  32  58 VRB3      30.29S
6HR MIN TEMP:  39; 6HR MAX TEMP:  46;


$$
MOZ066>068-077>081-088>096-101>105-171900-
...SOUTHWEST MISSOURI...

CITY           SKY/WX    TMP DP  RH WIND       PRES   REMARKS
SPRINGFIELD    MOSUNNY   61  35  37 CALM      30.22F
6HR MIN TEMP:  42; 6HR MAX TEMP:  61;

JOPLIN         PTSUNNY   57  38  48 VRB6      30.25F
6HR MIN TEMP:  42; 6HR MAX TEMP:  57;


$$
MOZ032>034-039>042-045>050-055>058-069>072-171900-
...CENTRAL MISSOURI...

CITY           SKY/WX    TMP DP  RH WIND       PRES   REMARKS
COLUMBIA       CLOUDY    53  38  56 CALM      30.27S
6HR MIN TEMP:  43; 6HR MAX TEMP:  54;

JEFFERSON CITY CLOUDY    54  37  52 W7        30.27S
6HR MIN TEMP:  44; 6HR MAX TEMP:  55;

ROLLA          CLOUDY    58  37  45 SW7       30.24F
6HR MIN TEMP:  41; 6HR MAX TEMP:  58;

SEDALIA        CLOUDY    48  37  65 NW7       30.30S
6HR MIN TEMP:  42; 6HR MAX TEMP:  48;

WHITEMAN AFB   CLOUDY    44  33  65 N6        30.29F
OSAGE BEACH    PTSUNNY   57  34  41 CALM      30.27F

$$
MOZ051-052-059>065-171900-
...EAST CENTRAL MISSOURI...

CITY           SKY/WX    TMP DP  RH WIND       PRES   REMARKS
ST LOUIS INTL  CLOUDY    63  36  36 W12       30.25F
6HR MIN TEMP:  46; 6HR MAX TEMP:  65;

SPIRIT OF STL  PTSUNNY   61  35  37 W5        30.25S
6HR MIN TEMP:  43; 6HR MAX TEMP:  61;

ST CHARLES     PTSUNNY   60  37  42 VRB6      30.25F
6HR MIN TEMP:  38; 6HR MAX TEMP:  60;


$$
MOZ072>076-082>087-097>100-106>115-171900-
...SOUTH CENTRAL AND SOUTHEAST MISSOURI...

CITY           SKY/WX    TMP DP  RH WIND       PRES   REMARKS
CAPE GIRARDEAU SUNNY     64  39  39 VRB7      30.27F
6HR MIN TEMP:  36; 6HR MAX TEMP:  64;

FARMINGTON     PTSUNNY   64  34  32 S10       30.25F
6HR MIN TEMP:  39; 6HR MAX TEMP:  64;

POPLAR BLUFF   SUNNY     63  36  36 S8        30.25F
6HR MIN TEMP:  37; 6HR MAX TEMP:  64;

WEST PLAINS    MOSUNNY   62  30  29 SE6       30.23F
6HR MIN TEMP:  38; 6HR MAX TEMP:  62;


$$



USA.gov is the U.S. government's official web portal to all federal, state and local government web resources and services.